Regional Weather Roundup
Issued by NWS

Home | Current Version | Previous Version | Text Only | Print | Product List | Glossary On
Versions: 1 2 3 4 5 6 7 8 9 10 11 12 13 14 15 16 17 18 19 20 21 22 23 24 25 26 27 28 29 30 31 32 33 34 35 36 37 38 39 40 41 42 43 44 45 46 47 48 49 50
000
ASUS44 KFWD 022101
RWRTX
NORTH TEXAS HOURLY WEATHER ROUNDUP
NATIONAL WEATHER SERVICE FORT WORTH TX
400 PM CDT WED SEP 02 2015

NOTE: "FAIR" INDICATES FEW OR NO CLOUDS BELOW 12,000 FEET WITH NO
SIGNIFICANT WEATHER AND/OR OBSTRUCTIONS TO VISIBILITY.

TXZ118-119-022200-
DALLAS/FORT WORTH METROPLEX

CITY           SKY/WX    TMP DP  RH WIND       PRES   REMARKS
DFW AIRPORT    FAIR      93  61  34 CALM      29.97F HX  93
DALLAS LOVE    FAIR      95  63  34 S15       29.97F HX  96
FTW MEACHAM    FAIR      95  62  33 SE12G21   29.96F HX  96
DAL-EXECUTIVE  FAIR      93  62  35 SE10      29.98F HX  93
FTW-ALLIANCE   FAIR      93  62  35 SE12G18   29.97F HX  93
FTW-NAS-JRB    FAIR      94  62  34 S8        29.97F HX  94
FTW-SPINKS     PTSUNNY   91  63  38 SE12G23   29.99F HX  92
ARLINGTON      PTSUNNY   94  61  33 S13       29.97F HX  94
GRAND PRAIRIE  SUNNY     91  63  38 SE13      29.99F HX  92
LANCASTER      FAIR      91  61  36 SE8       29.98F HX  91
$$

TXZ091>094-102>105-117-120-121-131>134-022200-
NORTH CENTRAL TEXAS

CITY           SKY/WX    TMP DP  RH WIND       PRES   REMARKS
SHRMAN/DENISON FAIR      93  65  39 SE9G18    29.99F HX  95
BRIDGEPORT     FAIR      93  63  36 S8        29.98F HX  94
DENTON         FAIR      93  63  36 VRB7G18   29.97F HX  94
MCKINNEY       FAIR      92  63  38 S14       29.98F HX  93
ROCKWALL       FAIR      90  64  42 S8        29.97F HX  91
TERRELL        FAIR      91  64  40 E10       29.99F HX  92
WAXAHACHIE     FAIR      92  65  40 S7        30.00F HX  94
CLEBURNE         N/A     91  63  38 SE8G16    30.00F HX  92
$$

TXZ083>090-098>101-113>116-127>130-139>142-154-155-022200-
WESTERN NORTH TEXAS

CITY           SKY/WX    TMP DP  RH WIND       PRES   REMARKS
WICHITA FALLS  FAIR      96  62  32 S10       29.95F HX  97
WF-KICKAPOO    FAIR      97  59  28 SE9G20    29.96F HX  96
VERNON         FAIR      97  47  17 S13       29.95F HX  93
ABILENE        FAIR      94  59  31 SE8G18    29.99F HX  93
ABILENE-DYESS  FAIR      95  60  30 S7G20     29.97F HX  95
MINERAL WELLS  FAIR      92  64  39 SE8       29.96F HX  93
STEPHENVILLE   FAIR      91  60  34 SE8       30.02F HX  91
COMANCHE       FAIR      94  60  32 E10G16    29.99F HX  93
COLEMAN        FAIR      94  61  33 S3        29.99F HX  93
$$

TXZ143>147-156>162-174-175-022200-
CENTRAL TEXAS

CITY           SKY/WX    TMP DP  RH WIND       PRES   REMARKS
WACO           FAIR      91  64  40 E8        29.97F HX  92
WACO-TSTC      MOSUNNY   90  66  45 SE3       29.97  HX  92
WACO-MCGREGOR  FAIR      92  65  40 E12       29.97F HX  94
CORSICANA      FAIR      93  64  38 E8G20     29.99F HX  94
MEXIA          FAIR      91  64  40 E15G24    29.97F HX  93
HEARNE         FAIR      91  67  46 SE9       29.97F HX  94
TEMPLE         FAIR      90  63  40 E6        29.97F HX  90
KILLEEN        FAIR      90  63  40 SE10G16   29.97F HX  90
KILLEEN-SKYLRK FAIR      90  64  43 E12       29.97F HX  91
FORT HOOD      FAIR      90  63  40 SE9       29.96F HX  91
HAMILTON       FAIR      92  59  32 E10       30.00F HX  91
$$

TXZ095>097-106>112-122>126-135>138-148>153-164>167-022200-
EAST TEXAS

CITY           SKY/WX    TMP DP  RH WIND       PRES   REMARKS
PARIS          FAIR      93  63  36 S7        30.00F HX  94
GILMER         FAIR      90  67  47 CALM      30.00F HX  93
MINEOLA        FAIR      91  61  35 SE6       30.01F HX  91
TYLER          FAIR      91  64  40 S6        30.00F HX  92
LONGVIEW       FAIR      91  67  44 VRB7      29.99F HX  94
MARSHALL       FAIR      94  71  47 CALM      30.01F HX 100
ATHENS         FAIR      90  63  40 NE5       29.97F HX  90
PALESTINE      FAIR      88  67  48 S3        30.00F HX  91
JACKSONVILLE   FAIR      90  63  40 E7        30.02F HX  90
CENTER         FAIR      93  61  34 SE8G17    29.97F HX  93
NACOGDOCHES    FAIR      91  61  35 E10       29.97F HX  91
LUFKIN         CLOUDY    92  61  35 E8        29.97F HX  92
$$

SUPPLEMENTAL OBSERVATIONS (CENTRAL)

CITY           SKY/WX    TMP DP  RH WIND       PRES   REMARKS
$$

SUPPLEMENTAL OBSERVATIONS (WEST)

CITY           SKY/WX    TMP DP  RH WIND       PRES   REMARKS
$$

SUPPLEMENTAL OBSERVATIONS (EAST)

CITY           SKY/WX    TMP DP  RH WIND       PRES   REMARKS
$$

SUPPLEMENTAL OBSERVATIONS ARE A COLLECTION OF AUTOMATED INSTRUMENTS
THAT ARE MAINTAINED BY A VARIETY OF FEDERAL AND STATE AGENCIES.
CERTAIN ELEMENTS...SUCH AS HUMIDITY VALUES AND SUSTAINED WIND
SPEEDS...MAY BE APPROXIMATED.



USA.gov is the U.S. government's official web portal to all federal, state and local government web resources and services.